Hourly Weather Radomsko

Today, 12 July, Sunday

Time Temperature Precipitation Wind Pressure Humidity
00:00 +12°C° 0 mm 2 mps 747 mmHg 96%
01:00 +10°C° 0 mm 2 mps 747 mmHg 97%
02:00 +10°C° 0 mm 2 mps 747 mmHg 96%
03:00 +10°C° 0 mm 2 mps 747 mmHg 94%
04:00 +10°C° 0 mm 2 mps 747 mmHg 93%
05:00 +12°C° 0 mm 2 mps 747 mmHg 89%
06:00 +13°C° 0 mm 2 mps 747 mmHg 84%
07:00 +15°C° 0 mm 2 mps 748 mmHg 79%
08:00 +16°C° 0.1 mm 3 mps 747 mmHg 72%
09:00 +17°C° 0.1 mm 3 mps 747 mmHg 66%
10:00 +19°C° 0.1 mm 4 mps 747 mmHg 59%
11:00 +19°C° 0.3 mm 4 mps 747 mmHg 58%
12:00 +20°C° 0.3 mm 4 mps 747 mmHg 56%
13:00 +20°C° 0.3 mm 5 mps 747 mmHg 54%
14:00 +20°C° 0 mm 4 mps 747 mmHg 54%
15:00 +20°C° 0 mm 4 mps 747 mmHg 54%
16:00 +20°C° 0 mm 4 mps 747 mmHg 54%
17:00 +19°C° 0.1 mm 4 mps 747 mmHg 62%
18:00 +17°C° 0.1 mm 3 mps 747 mmHg 69%
19:00 +16°C° 0.1 mm 3 mps 747 mmHg 76%
20:00 +15°C° 0 mm 2 mps 747 mmHg 78%
21:00 +14°C° 0 mm 2 mps 747 mmHg 80%
22:00 +13°C° 0 mm 2 mps 747 mmHg 82%
23:00 +13°C° 0 mm 2 mps 747 mmHg 82%

Tomorrow, 13 July, Monday

Time Temperature Precipitation Wind Pressure Humidity
00:00 +12°C° 0 mm 2 mps 747 mmHg 83%
01:00 +12°C° 0 mm 2 mps 748 mmHg 84%
02:00 +10°C° 0 mm 2 mps 747 mmHg 85%
03:00 +10°C° 0 mm 2 mps 747 mmHg 86%
04:00 +10°C° 0 mm 2 mps 747 mmHg 87%
05:00 +12°C° 0 mm 2 mps 747 mmHg 83%
06:00 +14°C° 0 mm 2 mps 747 mmHg 79%
07:00 +15°C° 0 mm 2 mps 747 mmHg 75%
08:00 +16°C° 0 mm 3 mps 747 mmHg 70%
09:00 +17°C° 0 mm 3 mps 747 mmHg 65%
10:00 +18°C° 0 mm 4 mps 746 mmHg 61%
11:00 +19°C° 0.1 mm 4 mps 746 mmHg 60%
12:00 +19°C° 0.1 mm 4 mps 746 mmHg 60%
13:00 +20°C° 0.1 mm 4 mps 746 mmHg 60%
14:00 +19°C° 0.1 mm 4 mps 745 mmHg 62%
15:00 +19°C° 0.1 mm 4 mps 745 mmHg 64%
16:00 +19°C° 0.1 mm 4 mps 745 mmHg 66%
17:00 +18°C° 0 mm 3 mps 745 mmHg 70%
18:00 +18°C° 0 mm 2 mps 744 mmHg 74%
19:00 +17°C° 0 mm 2 mps 744 mmHg 78%
20:00 +16°C° 0 mm 2 mps 744 mmHg 82%
21:00 +15°C° 0 mm 2 mps 744 mmHg 85%
22:00 +14°C° 0 mm 1 mps 744 mmHg 88%
23:00 +13°C° 0 mm 1 mps 744 mmHg 89%

Day after tomorrow, 14 July, Tuesday

Time Temperature Precipitation Wind Pressure Humidity
00:00 +13°C° 0 mm 1 mps 744 mmHg 90%
01:00 +13°C° 0 mm 1 mps 744 mmHg 91%
02:00 +13°C° 0 mm 1 mps 744 mmHg 91%
03:00 +12°C° 0 mm 1 mps 744 mmHg 92%
04:00 +12°C° 0 mm 1 mps 744 mmHg 92%
05:00 +14°C° 0 mm 1 mps 744 mmHg 87%
06:00 +15°C° 0 mm 1 mps 744 mmHg 82%
07:00 +18°C° 0 mm 1 mps 744 mmHg 76%
08:00 +19°C° 0.1 mm 1 mps 744 mmHg 70%
09:00 +21°C° 0.1 mm 1 mps 743 mmHg 64%
10:00 +22°C° 0.1 mm 1 mps 743 mmHg 59%
11:00 +22°C° 0.1 mm 1 mps 743 mmHg 56%
12:00 +23°C° 0.1 mm 1 mps 743 mmHg 54%
13:00 +24°C° 0.1 mm 1 mps 742 mmHg 52%
14:00 +24°C° 0.1 mm 1 mps 742 mmHg 53%
15:00 +23°C° 0.1 mm 1 mps 742 mmHg 53%
16:00 +23°C° 0.1 mm 1 mps 741 mmHg 54%
17:00 +21°C° 0.1 mm 2 mps 741 mmHg 59%
18:00 +20°C° 0.1 mm 2 mps 741 mmHg 65%
19:00 +19°C° 0.1 mm 2 mps 741 mmHg 71%
20:00 +18°C° 0 mm 2 mps 741 mmHg 74%
21:00 +17°C° 0 mm 2 mps 741 mmHg 77%
22:00 +16°C° 0 mm 2 mps 741 mmHg 80%
23:00 +15°C° 0 mm 2 mps 741 mmHg 82%

15 July, Wednesday

Time Temperature Precipitation Wind Pressure Humidity
00:00 +15°C° 0 mm 2 mps 741 mmHg 84%
01:00 +14°C° 0 mm 2 mps 741 mmHg 85%
02:00 +14°C° 0 mm 2 mps 741 mmHg 86%
03:00 +14°C° 0 mm 2 mps 740 mmHg 87%
04:00 +14°C° 0 mm 2 mps 740 mmHg 87%
05:00 +15°C° 0 mm 2 mps 740 mmHg 83%
06:00 +17°C° 0 mm 2 mps 740 mmHg 80%
07:00 +18°C° 0 mm 2 mps 740 mmHg 76%
08:00 +20°C° 0.3 mm 2 mps 740 mmHg 69%
09:00 +21°C° 0.3 mm 3 mps 740 mmHg 62%
10:00 +24°C° 0.3 mm 3 mps 740 mmHg 55%
11:00 +24°C° 0.1 mm 3 mps 739 mmHg 53%
12:00 +25°C° 0.1 mm 3 mps 739 mmHg 51%
13:00 +25°C° 0.1 mm 3 mps 739 mmHg 49%
14:00 +25°C° 0 mm 3 mps 738 mmHg 49%
15:00 +26°C° 0 mm 3 mps 738 mmHg 50%
16:00 +26°C° 0 mm 3 mps 738 mmHg 50%
17:00 +24°C° 0 mm 3 mps 738 mmHg 57%
18:00 +23°C° 0 mm 2 mps 737 mmHg 64%
19:00 +21°C° 0 mm 2 mps 737 mmHg 70%
20:00 +20°C° 0.2 mm 2 mps 737 mmHg 74%
21:00 +19°C° 0.2 mm 2 mps 737 mmHg 77%
22:00 +18°C° 0.2 mm 3 mps 737 mmHg 81%
23:00 +17°C° 0.2 mm 3 mps 737 mmHg 84%

16 July, Thursday

Time Temperature Precipitation Wind Pressure Humidity
00:00 +17°C° 0.2 mm 3 mps 737 mmHg 87%
01:00 +17°C° 0.2 mm 4 mps 737 mmHg 90%
02:00 +15°C° 1.1 mm 4 mps 737 mmHg 91%
03:00 +15°C° 1.1 mm 5 mps 736 mmHg 91%
04:00 +14°C° 1.1 mm 6 mps 736 mmHg 92%
05:00 +14°C° 0.2 mm 6 mps 737 mmHg 91%
06:00 +14°C° 0.2 mm 6 mps 737 mmHg 89%
07:00 +14°C° 0.2 mm 6 mps 737 mmHg 87%
08:00 +15°C° 0.2 mm 6 mps 737 mmHg 82%
09:00 +16°C° 0.2 mm 6 mps 737 mmHg 76%
10:00 +17°C° 0.2 mm 6 mps 738 mmHg 71%
11:00 +17°C° 0.6 mm 5 mps 738 mmHg 70%
12:00 +19°C° 0.6 mm 5 mps 738 mmHg 69%
13:00 +19°C° 0.6 mm 4 mps 738 mmHg 68%
14:00 +19°C° 1 mm 5 mps 737 mmHg 70%
15:00 +17°C° 1 mm 5 mps 737 mmHg 71%
16:00 +17°C° 1 mm 5 mps 737 mmHg 73%
17:00 +17°C° 0.3 mm 4 mps 737 mmHg 77%
18:00 +16°C° 0.3 mm 3 mps 737 mmHg 81%
19:00 +15°C° 0.3 mm 2 mps 737 mmHg 85%
20:00 +15°C° 0.1 mm 2 mps 738 mmHg 87%
21:00 +14°C° 0.1 mm 2 mps 738 mmHg 89%
22:00 +13°C° 0.1 mm 2 mps 738 mmHg 91%
23:00 +13°C° 0.1 mm 2 mps 737 mmHg 92%

17 July, Friday

Time Temperature Precipitation Wind Pressure Humidity
00:00 +13°C° 0.1 mm 1 mps 737 mmHg 92%
01:00 +13°C° 0.1 mm 1 mps 737 mmHg 92%
02:00 +13°C° 0.3 mm 1 mps 737 mmHg 93%
03:00 +13°C° 0.3 mm 1 mps 737 mmHg 94%
04:00 +13°C° 0.3 mm 1 mps 737 mmHg 94%
05:00 +13°C° 0.2 mm 1 mps 737 mmHg 93%
06:00 +13°C° 0.2 mm 2 mps 738 mmHg 93%
07:00 +14°C° 0.2 mm 2 mps 738 mmHg 92%
08:00 +15°C° 0.2 mm 2 mps 738 mmHg 86%
09:00 +16°C° 0.2 mm 2 mps 739 mmHg 81%
10:00 +17°C° 0.2 mm 2 mps 739 mmHg 76%
11:00 +18°C° 0.4 mm 3 mps 739 mmHg 72%
12:00 +19°C° 0.4 mm 3 mps 739 mmHg 69%
13:00 +20°C° 0.4 mm 4 mps 739 mmHg 65%
14:00 +20°C° 0.2 mm 4 mps 739 mmHg 68%
15:00 +19°C° 0.2 mm 4 mps 739 mmHg 71%
16:00 +19°C° 0.2 mm 5 mps 739 mmHg 74%
17:00 +19°C° 0.4 mm 4 mps 739 mmHg 78%
18:00 +18°C° 0.4 mm 3 mps 739 mmHg 81%
19:00 +18°C° 0.4 mm 2 mps 739 mmHg 85%
20:00 +17°C° 0 mm 2 mps 740 mmHg 87%
21:00 +16°C° 0 mm 2 mps 740 mmHg 89%
22:00 +15°C° 0 mm 2 mps 740 mmHg 91%
23:00 +14°C° 0 mm 2 mps 740 mmHg 93%
Show more